Home   Weather   Cheltenham   Past weeks
Flag for United Kingdom

Past Weather in Cheltenham, England, United Kingdom — Yesterday and Last 2 Weeks

Now
29 °F

Chilly.


Feels Like: 22 °F
Forecast: N/A
Wind: 8 mph from Northwest

Location: Little Rissington

Current Time: Jan 22, 2019 at 11:32:55 pm

Latest Report: Jan 22, 2019 at 10:00 pm


Visibility: 19 mi

Pressure: 29.47 "Hg

Humidity: 94%

Dew Point: 28 °F

Location of CheltenhamLocation

Past Weather in Cheltenham — Graph

°F

Cheltenham Temperature Yesterday

Maximum temperature yesterday: 39 °F (at 11:00 pm)
Minimum temperature yesterday: 30 °F (at 12:00 am)
Average temperature yesterday: 36 °F

High & Low Weather Summary for the Past Weeks

 TemperatureHumidityPressure
High50 °F (Jan 13, 2:00 pm)100% (Jan 10, 6:00 pm)30.48 "Hg (Jan 10, 6:00 pm)
Low28 °F (Jan 18, 4:00 am)64% (Jan 17, 3:00 pm)29.44 "Hg (Jan 22, 9:00 pm)
Average39 °F88%30.08 "Hg
* Reported Jan 7 10:00 pm — Jan 22 10:00 pm, Cheltenham. Weather by CustomWeather, © 2019

Note: Actual official high and low records may vary slightly from our data, if they occured in-between our weather recording intervals... More about our weather records

Advertising

Cheltenham Weather History for the Previous 24 Hours

Scroll right to see more
 ConditionsComfort  
Time TempWeatherWind HumidityBarometerVisibility
10:00 pm
Tue, Jan 22
29 °FChilly.8 mph94%29.47 "Hg19 mi
9:00 pm31 °FChilly.9 mph95%29.44 "Hg25 mi
8:00 pm31 °FChilly.8 mph96%29.47 "Hg17 mi
7:00 pm33 °FChilly.7 mph100%29.47 "Hg12 mi
6:00 pm32 °FChilly.5 mph99%29.47 "Hg6 mi
5:00 pm33 °FChilly.5 mph99%29.47 "Hg5 mi
4:00 pm34 °FChilly.8 mph98%29.47 "Hg2 mi
3:00 pm34 °FChilly.8 mph98%29.50 "Hg3 mi
2:00 pm36 °FChilly.8 mph91%29.50 "Hg9 mi
1:00 pm36 °FChilly.7 mph91%29.55 "Hg25 mi
12:00 pm36 °FChilly.8 mph88%29.58 "Hg25 mi
11:00 am36 °FChilly.8 mph89%29.60 "Hg22 mi
10:00 am35 °FChilly.6 mph91%29.62 "Hg22 mi
9:00 am33 °FChilly.7 mph93%29.62 "Hg22 mi
8:00 am31 °FChilly.5 mph93%29.63 "Hg22 mi
7:00 am32 °FChilly.10 mph90%29.63 "Hg22 mi
6:00 am32 °FChilly.9 mph95%29.64 "Hg19 mi
5:00 am33 °FChilly.10 mph96%29.65 "Hg17 mi
4:00 am33 °FChilly.8 mph95%29.65 "Hg22 mi
3:00 am35 °FChilly.12 mph93%29.67 "Hg25 mi
2:00 am37 °FChilly.14 mph89%29.67 "Hg34 mi
1:00 am40 °FChilly.18 mph97%29.67 "Hg25 mi
12:00 am40 °FChilly.24 mph97%29.71 "Hg1 mi
11:00 pm
Mon, Jan 21
39 °FChilly.22 mph96%29.75 "Hg4 mi
Weather by CustomWeather, © 2019

See weather overview